Le nostre stazioni meteo in Italia

Pubblicità
Il mio iltempo24.it
Lulea/Kallax, Svezia (2186): Temperatura & dewpoint: 09.09.2019 21:00:00 - 15.09.2019 21:00:00 (CEST)Lulea/Kallax, Svezia (2186): velocità del vento & gusts: 09.09.2019 21:00:00 - 15.09.2019 21:00:00 (CEST)Lulea/Kallax, Svezia (2186): direzione del vento: 09.09.2019 21:00:00 - 15.09.2019 21:00:00 (CEST)Lulea/Kallax, Svezia (2186): reduced air pressure: 09.09.2019 21:00:00 - 15.09.2019 21:00:00 (CEST)Lulea/Kallax, Svezia (2186): visibility: 09.09.2019 21:00:00 - 15.09.2019 21:00:00 (CEST)Lulea/Kallax, Svezia (2186): precipitazioni: 09.09.2019 21:00:00 - 15.09.2019 21:00:00 (CEST)
Data & Tempo tt [°C] td [°C] ff [km/h] ff [kn] fx [km/h] fx [kn] dd ppp [hPa] vv [km] rr [mm]
15.09.2019 21:00:00 9,0 6,0 13 7 - - ENE - 10 -
15.09.2019 20:00:00 8,0 6,6 9 5 25 14 NE 990,6 10 2,0
15.09.2019 19:00:00 8,4 6,4 9 5 22 12 ENE 990,6 10 0,9
15.09.2019 18:00:00 8,1 6,4 13 7 22 12 ENE 990,8 10 1,0
15.09.2019 17:00:00 7,9 6,0 15 8 36 19 E 990,5 10 2,0
15.09.2019 16:00:00 10,1 6,1 16 9 25 14 E 990,4 10 0,0
15.09.2019 15:00:00 9,5 6,4 11 6 32 18 E 990,7 10 0,8
15.09.2019 14:00:00 9,6 6,0 16 9 29 16 ESE 991,0 10 0,1
15.09.2019 13:00:00 8,5 6,5 16 9 47 25 ESE 991,7 10 1,0
15.09.2019 12:00:00 9,6 6,1 24 13 40 21 SE 991,9 10 0,0
15.09.2019 11:00:00 9,5 7,1 16 9 32 18 SSE 992,5 10 0,5
15.09.2019 10:00:00 8,3 5,9 16 9 32 18 SE 993,4 10 0,6
15.09.2019 09:00:00 7,3 5,4 26 14 36 19 SE 994,7 8 3,0
15.09.2019 08:00:00 7,8 5,9 8 4 32 18 SSE 995,3 10 3,0
15.09.2019 07:00:00 9,2 5,4 8 4 32 18 S 996,6 10 2,0
15.09.2019 06:00:00 8,9 4,7 11 6 22 12 SSE 997,5 10 0,0
15.09.2019 05:00:00 9,3 6,6 16 9 22 12 S 999,3 10 0,0
15.09.2019 04:00:00 8,4 5,7 11 6 18 10 S 1000,7 10 0,0
15.09.2019 03:00:00 4,6 4,0 5 3 14 8 S 1001,8 10 0,0
15.09.2019 02:00:00 4,1 3,4 2 1 4 2 - 1003,4 10 0,0
15.09.2019 01:00:00 3,9 3,5 0 0 7 4 N 1004,6 10 0,0
15.09.2019 00:00:00 3,9 3,3 4 2 7 4 - 1005,2 10 0,0
14.09.2019 23:00:00 4,9 3,6 2 1 7 4 SE 1006,2 10 0,0
14.09.2019 22:00:00 7,5 4,6 5 3 14 8 OSO 1007,1 10 0,0
14.09.2019 21:00:00 7,3 4,9 5 3 14 8 OSO 1007,7 10 0,0
14.09.2019 20:00:00 8,3 5,1 5 3 7 4 SO 1008,3 10 0,0
14.09.2019 19:00:00 9,9 5,3 8 4 11 6 SSO 1008,6 10 0,0
14.09.2019 18:00:00 11,3 5,0 8 4 14 8 S 1009,0 10 0,0
14.09.2019 17:00:00 12,0 3,7 9 5 18 10 S 1009,5 10 0,0
14.09.2019 16:00:00 12,2 4,2 16 9 22 12 S 1009,8 10 0,0
14.09.2019 15:00:00 12,1 4,3 16 9 22 12 S 1009,8 10 0,0
14.09.2019 14:00:00 11,9 3,4 9 5 18 10 SO 1010,1 10 0,0
14.09.2019 13:00:00 11,2 4,2 13 7 22 12 S 1010,0 10 0,0
14.09.2019 12:00:00 11,3 4,1 11 6 22 12 - 1010,0 10 0,0
14.09.2019 11:00:00 10,7 3,7 2 1 11 6 - 1009,9 10 0,0
14.09.2019 10:00:00 9,2 3,8 9 5 14 8 NO 1009,9 10 0,0
14.09.2019 09:00:00 7,8 3,5 9 5 11 6 NO 1009,8 10 0,0
14.09.2019 08:00:00 5,7 3,0 5 3 11 6 NO 1009,5 10 0,0
14.09.2019 07:00:00 5,0 3,0 8 4 18 10 NNO 1009,3 10 0,0
14.09.2019 06:00:00 5,4 3,1 15 8 18 10 ONO 1009,3 10 0,0
14.09.2019 05:00:00 6,4 3,4 11 6 18 10 NO 1009,0 10 0,0
14.09.2019 04:00:00 6,6 3,6 16 9 22 12 NO 1008,7 10 0,0
14.09.2019 03:00:00 7,1 3,9 18 10 22 12 NO 1008,2 10 0,0
14.09.2019 02:00:00 7,0 4,3 16 9 25 14 NO 1007,6 10 0,0
14.09.2019 01:00:00 7,3 4,3 16 9 22 12 NO 1007,2 10 0,0
14.09.2019 00:00:00 7,5 4,3 16 9 22 12 NO 1006,8 10 0,0
13.09.2019 23:00:00 7,0 5,0 16 9 - - ONO - 10 -
13.09.2019 22:00:00 7,8 5,9 16 9 22 12 NO 1005,8 10 0,0
13.09.2019 21:00:00 7,5 6,1 9 5 18 10 ONO 1005,3 10 0,0
13.09.2019 20:00:00 8,0 6,5 11 6 18 10 O 1005,0 10 0,0
13.09.2019 19:00:00 8,0 6,5 9 5 29 16 O 1004,5 10 0,6
13.09.2019 18:00:00 8,6 7,2 8 4 14 8 O 1003,9 10 0,0
13.09.2019 17:00:00 8,7 7,2 11 6 25 14 NO 1003,8 10 0,1
13.09.2019 16:00:00 8,4 6,7 13 7 25 14 NNO 1003,4 8 3,0
13.09.2019 15:00:00 9,3 7,2 18 10 36 19 NO 1002,6 10 0,8
13.09.2019 14:00:00 10,4 6,4 28 15 40 21 NO 1001,7 10 0,1
13.09.2019 13:00:00 12,4 5,1 16 9 29 16 ONO 1000,9 10 0,0
13.09.2019 12:00:00 12,0 4,7 22 12 32 18 NO 1000,5 10 0,0
13.09.2019 11:00:00 11,9 4,6 16 9 29 16 O 1000,6 10 0,0
13.09.2019 10:00:00 11,3 4,7 18 10 29 16 ONO 1000,5 10 0,0
13.09.2019 09:00:00 10,0 4,8 16 9 25 14 O 1000,4 10 0,0
13.09.2019 08:00:00 9,1 4,7 15 8 25 14 O 1000,3 10 0,0
13.09.2019 07:00:00 8,4 5,2 11 6 22 12 O 1000,3 10 0,0
13.09.2019 06:00:00 8,4 5,3 13 7 22 12 O 1000,2 10 0,0
13.09.2019 05:00:00 9,2 6,5 11 6 18 10 O 1000,2 10 0,0
13.09.2019 04:00:00 9,9 7,1 8 4 14 8 O 1000,2 10 0,0
13.09.2019 03:00:00 10,6 7,5 8 4 14 8 O 1000,3 10 0,0
13.09.2019 02:00:00 10,6 7,5 9 5 14 8 OSO 1000,5 10 0,0
13.09.2019 01:00:00 10,9 7,6 9 5 14 8 OSO 1000,4 10 0,0
13.09.2019 00:00:00 11,2 7,9 9 5 14 8 SO 1000,7 10 0,0
12.09.2019 23:00:00 11,5 8,0 9 5 18 10 OSO 1001,0 10 0,0
12.09.2019 22:00:00 11,8 8,3 9 5 18 10 OSO 1000,9 10 0,0
12.09.2019 21:00:00 12,5 8,4 8 4 18 10 SO 1001,0 10 0,0
12.09.2019 20:00:00 13,3 7,9 11 6 18 10 OSO 1000,7 10 0,0
12.09.2019 19:00:00 14,5 8,4 13 7 25 14 O 1000,5 10 0,0
12.09.2019 18:00:00 16,1 8,6 11 6 25 14 O 1000,1 10 0,0
12.09.2019 17:00:00 16,9 8,3 16 9 29 16 O 1000,0 10 0,0
12.09.2019 16:00:00 17,1 8,8 21 11 29 16 O 999,6 10 0,0
12.09.2019 15:00:00 17,7 10,9 9 5 22 12 OSO 999,2 10 0,0
12.09.2019 14:00:00 16,4 10,3 28 15 40 21 ONO 999,2 10 0,0
12.09.2019 13:00:00 15,4 13,4 15 8 25 14 S 998,8 10 0,0
12.09.2019 12:00:00 14,9 12,8 16 9 25 14 SSO 998,9 10 0,0
12.09.2019 11:00:00 14,0 12,7 13 7 25 14 SSO 998,9 10 0,0
12.09.2019 10:00:00 13,1 12,5 18 10 25 14 S 999,2 10 0,7
12.09.2019 09:00:00 13,2 12,6 18 10 29 16 S 999,7 10 0,6
12.09.2019 08:00:00 13,5 12,7 15 8 29 16 SSO 1000,0 10 0,0
12.09.2019 07:00:00 13,7 13,2 21 11 29 16 S 1000,1 10 1,0
12.09.2019 06:00:00 13,5 13,0 16 9 29 16 S 1000,4 5 2,0
12.09.2019 05:00:00 13,7 13,1 15 8 22 12 S 1001,0 10 0,0
12.09.2019 04:00:00 13,5 12,9 16 9 22 12 S 1001,5 10 0,0
12.09.2019 03:00:00 13,8 13,2 11 6 22 12 S 1002,2 10 0,0
12.09.2019 02:00:00 13,9 13,1 16 9 25 14 S 1002,7 10 0,0
12.09.2019 01:00:00 14,0 13,2 16 9 25 14 S 1002,9 10 0,0
12.09.2019 00:00:00 14,1 13,1 15 8 32 18 S 1003,4 10 0,0
11.09.2019 23:00:00 14,3 13,3 16 9 25 14 SSE 1003,8 10 0,0
11.09.2019 22:00:00 14,3 13,3 11 6 22 12 S 1004,4 10 0,0
11.09.2019 21:00:00 14,1 13,1 15 8 22 12 SSE 1005,0 10 0,0
11.09.2019 20:00:00 13,9 13,1 15 8 25 14 S 1005,6 10 0,0
11.09.2019 19:00:00 14,2 12,9 18 10 25 14 S 1006,1 10 0,0
11.09.2019 18:00:00 14,9 12,8 16 9 25 14 S 1006,5 10 0,0
11.09.2019 17:00:00 15,6 14,3 9 5 25 14 SSE 1007,0 10 1,0
11.09.2019 16:00:00 16,3 13,2 13 7 29 16 S 1007,9 10 0,0
11.09.2019 15:00:00 16,7 13,4 15 8 29 16 SSE 1008,6 10 0,0
11.09.2019 14:00:00 16,8 13,3 18 10 25 14 SE 1009,1 10 0,0
11.09.2019 13:00:00 16,1 13,8 21 11 29 16 SE 1009,8 10 0,0
11.09.2019 12:00:00 15,8 14,7 21 11 29 16 SSE 1010,2 10 0,0
11.09.2019 11:00:00 15,3 14,7 18 10 29 16 SSE 1010,9 10 0,0
11.09.2019 10:00:00 14,6 14,4 18 10 25 14 SE 1011,4 6 0,0
11.09.2019 09:00:00 14,3 14,1 13 7 22 12 SE 1012,1 2,0 0,0
11.09.2019 08:00:00 14,0 13,8 15 8 18 10 SE 1012,5 0,2 0,0
11.09.2019 07:00:00 14,0 14,0 11 6 - - SSE - 0,4 -
11.09.2019 06:00:00 14,1 14,0 13 7 18 10 SSE 1013,2 2,0 0,0
11.09.2019 05:00:00 14,1 13,9 15 8 18 10 SSE 1014,1 6 0,0
11.09.2019 04:00:00 13,3 13,1 5 3 11 6 SE 1014,9 2,6 0,0
11.09.2019 03:00:00 12,8 12,6 9 5 11 6 SE 1015,8 0,1 0,0
11.09.2019 02:00:00 13,9 13,7 8 4 11 6 SSE 1016,0 6 0,0
11.09.2019 01:00:00 14,1 13,9 5 3 14 8 SSE 1016,6 10 0,0
11.09.2019 00:00:00 13,4 13,2 4 2 11 6 SE 1017,2 9 0,0
10.09.2019 23:00:00 13,4 13,2 2 1 7 4 - 1017,7 3,7 0,0
10.09.2019 22:00:00 12,7 12,5 5 3 7 4 ESE 1018,1 3,0 0,0
10.09.2019 21:00:00 13,6 13,4 8 4 14 8 SE 1018,6 1,1 0,0
10.09.2019 20:00:00 13,7 13,5 4 2 11 6 - 1019,2 1,4 0,0
10.09.2019 19:00:00 13,9 13,7 5 3 14 8 SSO 1019,3 9 0,0
10.09.2019 18:00:00 14,1 13,9 9 5 18 10 SSE 1019,6 1,0 0,0
10.09.2019 17:00:00 14,0 13,5 13 7 18 10 SSE 1019,8 0,2 0,0
10.09.2019 16:00:00 13,9 13,6 9 5 14 8 SE 1020,1 0,2 0,0
10.09.2019 15:00:00 13,8 13,3 9 5 18 10 ESE 1020,5 1,1 0,2
10.09.2019 14:00:00 13,6 13,3 15 8 18 10 SSE 1021,0 0,4 0,0
10.09.2019 13:00:00 14,1 13,5 11 6 14 8 SSE 1021,0 10 0,0
10.09.2019 12:00:00 13,2 12,7 5 3 7 4 SE 1021,1 10 0,0
10.09.2019 11:00:00 12,1 11,8 4 2 11 6 - 1021,4 7 0,0
10.09.2019 10:00:00 11,1 10,8 4 2 14 8 - 1021,7 5 0,0
10.09.2019 09:00:00 9,6 9,3 9 5 14 8 N 1022,0 2,5 0,0
10.09.2019 08:00:00 9,6 9,3 8 4 14 8 N 1022,2 1,1 0,0
10.09.2019 07:00:00 9,5 9,2 2 1 11 6 - 1022,3 0,9 0,0
10.09.2019 06:00:00 8,7 8,4 5 3 11 6 NNO 1022,4 0,6 0,0
10.09.2019 05:00:00 8,3 8,0 5 3 14 8 N 1022,4 8 0,0
10.09.2019 04:00:00 7,3 7,0 5 3 11 6 NNO 1022,7 10 0,0
10.09.2019 03:00:00 8,2 7,9 8 4 14 8 N 1022,9 10 0,0
10.09.2019 02:00:00 8,6 8,3 8 4 14 8 N 1023,3 0,2 0,0
10.09.2019 01:00:00 7,5 7,2 8 4 11 6 N 1023,3 10 0,0
10.09.2019 00:00:00 7,7 7,3 4 2 7 4 N 1023,6 10 0,0
09.09.2019 23:00:00 7,9 7,5 2 1 7 4 - 1023,7 10 0,0
09.09.2019 22:00:00 6,6 5,9 5 3 7 4 NNO 1024,1 10 0,0
09.09.2019 21:00:00 8,9 8,1 2 1 7 4 - 1024,3 10 0,0

tt = Temperatura
td = dewpoint
ff = velocità del vento
fx = gusts
dd = direzione del vento
ppp = reduced air pressure
vv = visibility
rr = precipitazioni

Stazioni seguenti

WeatherPro
AMSI
MeteoEarth